[[{"header":{"parameterUnit":"m.s-1","parameterCategory":2,"la1":30.2991,"la2":30.254,"lo1":-89.0895,"lo2":-89.0444,"dy":0.0017,"dx":0.0017,"nx":28,"ny":28,"refTime":"2024-07-12T09:00:00:Z","depth":"0","parameterNumber":2,"parameterNumberName":"U-component_of_CURRENTS"},"data":[0,0,0,0,0,0,0,0,0,0,0,0,0,0,0,0,0,0,0,0,0,0,0,0,0,0,0,0,0,0,0,0,0,0,0,0,0,0,0,0,0,0,0,0,0,0,0,0,0,0,0,0,0,0,0,0,0,0,0.3077,0.3077,0,0.3063,0.3063,0.3062,0.2977,0.2976,0.2974,0.2973,0.2968,0.2969,0.297,0,0,0,0,0,0,0,0,0,0,0,0,0,0.2959,0.2961,0.3077,0.3077,0.3078,0.3063,0.3063,0.3062,0.2977,0.2976,0.2974,0.2972,0.2967,0.2969,0.297,0,0,0,0,0,0,0,0,0,0,0,0,0,0.2978,0.2962,0.3077,0.3039,0.3036,0.3064,0.3063,0.3061,0.2978,0.2976,0.2974,0.2972,0.2967,0.2968,0.297,0.3024,0,0,0.2976,0.2976,0,0,0,0,0,0,0,0,0.2977,0.2981,0.3044,0.3042,0.3039,0.3026,0.3019,0.3052,0.2978,0.2993,0.2973,0.2971,0.2994,0.2993,0.2985,0.3023,0.3023,0.2976,0.2977,0.2978,0.2978,0,0,0,0,0,0,0,0.2976,0.2981,0.3064,0.3045,0.3042,0.2999,0.2999,0.3024,0.3,0.2991,0.2987,0.2997,0.2991,0.2984,0.2985,0.3023,0.2976,0.2977,0.2978,0.2979,0.3132,0.3135,0,0,0,0,0,0,0.2998,0.2981,0.3065,0.3065,0.301,0.3004,0.3004,0.3026,0.3,0.2995,0.2999,0.2993,0.2982,0.2983,0.2985,0.3009,0.2978,0.2979,0.298,0.3129,0.3133,0.3136,0,0,0,0,0,0,0.2996,0.3006,0.3066,0.3026,0.3032,0.3009,0.3035,0.3027,0.3009,0.3007,0.3,0.2987,0.298,0.2982,0.2989,0.301,0.298,0.2982,0.3126,0.313,0.3135,0.3083,0,0,0,0,0,0,0.2993,0.3006,0.3033,0.3029,0.3035,0.3091,0.3037,0.3029,0.3023,0.3015,0.2996,0.2993,0.2979,0.2987,0.2991,0.3012,0.2983,0.3122,0.3128,0.3133,0.3081,0.3085,0.3089,0,0,0,0,0,0.2989,0.3025,0.3035,0.3045,0.3073,0.3093,0.3092,0.3062,0.3025,0.3033,0.3002,0.2993,0.3028,0.2989,0.2994,0.3016,0.3119,0.3126,0.3133,0.3079,0.3085,0.3089,0,0,0,0,0,0,0.2993,0.3021,0.303,0.3077,0.3095,0.3082,0.3089,0.3068,0.3049,0.3035,0.3007,0.3005,0.3024,0.3048,0.3006,0.3089,0.3084,0.3092,0.3042,0.3047,0.3051,0.3048,0.2984,0,0,0,0,0,0.3014,0.3045,0.3068,0.311,0.3118,0.3105,0.3109,0.3094,0.308,0.3067,0.3051,0.3056,0.3064,0.3071,0.309,0.3126,0.3159,0.316,0.3164,0.3167,0.3176,0.3249,0.3258,0.3159,0.3158,0.3158,0,0,0.3033,0.3051,0.3073,0.3113,0.3116,0.312,0.3099,0.3113,0.3104,0.3076,0.3057,0.3063,0.3079,0.3102,0.3119,0.3116,0.3213,0.3175,0.3176,0.3184,0.3257,0.3266,0.3274,0.3163,0.3162,0.3162,0,0,0.3055,0.3099,0.3115,0.313,0.3151,0.3145,0.3151,0.3146,0.3132,0.3139,0.3108,0.3121,0.3146,0.3145,0.315,0.3206,0.3227,0.3235,0.3245,0.3315,0.3323,0.333,0.3363,0.3373,0.324,0.324,0.324,0,0.3069,0.3099,0.3126,0.3133,0.3139,0.3151,0.3151,0.3153,0.3148,0.3143,0.3138,0.3163,0.3165,0.3179,0.319,0.3208,0.3246,0.3204,0.3314,0.3322,0.333,0.3363,0.3375,0.3238,0.3238,0.3239,0.3239,0,0.3086,0.3111,0.3122,0.3131,0.3144,0.316,0.3167,0.3171,0.3163,0.3163,0.3187,0.3198,0.3214,0.3229,0.3213,0.3276,0.3283,0.3298,0.3282,0.3336,0.3368,0.3381,0.3236,0.3236,0.3237,0.3237,0,0,0.309,0.3125,0.3124,0.3118,0.3143,0.3143,0.3151,0.3158,0.3147,0.3181,0.3185,0.3209,0.3228,0.3242,0.3247,0.3303,0.3369,0.3324,0.3329,0.3322,0.3508,0.3431,0.3438,0.3403,0.3406,0.3408,0.3498,0,0.3084,0.309,0.311,0.3103,0.31,0.3118,0.3118,0.313,0.3147,0.3163,0.3206,0.3222,0.3232,0.324,0.3301,0.3358,0.3408,0.3342,0.349,0.3494,0.339,0.3452,0.3297,0.3358,0.3511,0.3513,0.3515,0,0.3065,0.3076,0.3071,0.3071,0.307,0.3067,0.3061,0.307,0.3112,0.3133,0.3181,0.3215,0.3287,0.3299,0.3438,0.34,0.3455,0.3501,0.3506,0.3464,0.3443,0.3341,0.3377,0.3217,0.3536,0.3534,0.3533,0,0.3011,0.3029,0.3019,0.3023,0.3037,0.3027,0.3032,0.3057,0.3057,0.3123,0.3147,0.324,0.3296,0.34,0.3501,0.348,0.3663,0.3644,0.3621,0.3615,0.3527,0.3509,0.3396,0.3748,0.3747,0.3747,0.3747,0,0.2976,0.2961,0.2992,0.2982,0.2955,0.2988,0.2966,0.2985,0.303,0.304,0.3134,0.3169,0.3334,0.3446,0.3527,0.3624,0.3693,0.3635,0.3645,0.3504,0.3483,0.3377,0.3357,0.3751,0.375,0.3749,0.3749,0,0.2901,0.2934,0.2906,0.2923,0.2924,0.2899,0.2908,0.2899,0.2966,0.2992,0.3016,0.3146,0.3291,0.344,0.3616,0.3642,0.3642,0.3756,0.356,0.3545,0.3321,0.3307,0.3238,0.3185,0.3723,0.3722,0.3721,0,0.2853,0.2837,0.2838,0.2815,0.2818,0.2804,0.2792,0.2849,0.2855,0.296,0.2973,0.3123,0.3201,0.3433,0.3532,0.3664,0.3599,0.3572,0.3492,0.3291,0.3285,0.3211,0.3168,0.3356,0.3352,0.3348,0.3346,0,0.2746,0.2749,0.2734,0.2709,0.2688,0.266,0.2666,0.2663,0.2743,0.2784,0.2853,0.2925,0.314,0.3221,0.3404,0.3449,0.3379,0.3505,0.3366,0.3046,0.2896,0.2855,0.3293,0.3317,0.332,0.3322,0.3324,0.3325,0.2641,0.2614,0.2607,0.2571,0.2545,0.251,0.2468,0.2501,0.2506,0.2551,0.2695,0.2764,0.2916,0.3132,0.3165,0.3064,0.3173,0.2985,0.3004,0.296,0.2839,0.319,0.3181,0.3183,0.3185,0.3186,0.3188,0,0.2501,0.2509,0.2467,0.2422,0.2353,0.239,0.2367,0.2328,0.2308,0.2392,0.2453,0.2524,0.2588,0.268,0.2677,0.2582,0.2514,0.252,0.2365,0.2369,0.2723,0.2628,0.2413,0.2413,0.2413,0.2413,0.2413,0.2413,0.243,0.2389,0.2388,0.2254,0.2211,0.2121,0.2092,0.2063,0.2093,0.207,0.2089,0.2169,0.2263,0.2271,0.2155,0.2119,0.2014,0.1964,0.2023,0.2217,0.2259,0.23,0.2198,0.1896,0.1896,0.1551,0.1548,0.1546]},{"header":{"parameterUnit":"m.s-1","parameterCategory":2,"la1":30.2991,"la2":30.254,"lo1":-89.0895,"lo2":-89.0444,"dy":0.0017,"dx":0.0017,"nx":28,"ny":28,"refTime":"2024-07-12T09:00:00:Z","depth":"0","parameterNumber":3,"parameterNumberName":"V-component_of_CURRENTS"},"data":[0,0,0,0,0,0,0,0,0,0,0,0,0,0,0,0,0,0,0,0,0,0,0,0,0,0,0,0,0,0,0,0,0,0,0,0,0,0,0,0,0,0,0,0,0,0,0,0,0,0,0,0,0,0,0,0,0,0,0.0988,0.0989,0,0.1013,0.1013,0.1013,0.0979,0.0978,0.0977,0.0976,0.0998,0.0999,0.1,0,0,0,0,0,0,0,0,0,0,0,0,0,0.0907,0.0909,0.0988,0.0989,0.099,0.1013,0.1013,0.1013,0.0979,0.0978,0.0977,0.0976,0.0997,0.0999,0.1,0,0,0,0,0,0,0,0,0,0,0,0,0,0.0935,0.0909,0.0988,0.0978,0.0978,0.1013,0.1013,0.1013,0.0979,0.0978,0.0977,0.0975,0.0997,0.0999,0.1001,0.104,0,0,0.1007,0.1008,0,0,0,0,0,0,0,0,0.0933,0.0937,0.0979,0.0979,0.0979,0.0994,0.0992,0.1023,0.098,0.0975,0.0976,0.0975,0.1,0.1001,0.1004,0.1041,0.1042,0.1007,0.1008,0.1009,0.101,0,0,0,0,0,0,0,0.0931,0.0936,0.0994,0.098,0.098,0.0971,0.0973,0.0997,0.0992,0.0975,0.0974,0.0983,0.0999,0.1002,0.1004,0.1042,0.1007,0.1009,0.101,0.1011,0.1046,0.1045,0,0,0,0,0,0,0.0938,0.0935,0.0994,0.0995,0.0956,0.0974,0.0976,0.0988,0.0991,0.0992,0.0984,0.0981,0.0999,0.1002,0.1005,0.1018,0.1009,0.1011,0.1012,0.1046,0.1046,0.1045,0,0,0,0,0,0,0.0936,0.0943,0.0993,0.0968,0.0974,0.0977,0.099,0.0989,0.0989,0.0998,0.0997,0.0984,0.0998,0.1002,0.1009,0.102,0.1012,0.1014,0.1046,0.1046,0.1045,0.1067,0,0,0,0,0,0,0.0934,0.0942,0.0949,0.0969,0.0976,0.1011,0.0992,0.0991,0.0998,0.0994,0.0999,0.1,0.0997,0.1006,0.1011,0.1023,0.1016,0.1047,0.1046,0.1046,0.1066,0.1067,0.1067,0,0,0,0,0,0.0931,0.0941,0.0949,0.0956,0.0987,0.1012,0.1015,0.101,0.0999,0.1003,0.0994,0.0999,0.1005,0.1008,0.1014,0.1026,0.1047,0.1046,0.1046,0.1066,0.1067,0.1067,0,0,0,0,0,0,0.0899,0.094,0.0949,0.0968,0.0991,0.1008,0.1013,0.1015,0.1013,0.1009,0.1005,0.1005,0.1013,0.1015,0.1018,0.103,0.1024,0.1025,0.1038,0.1039,0.1039,0.1057,0.1017,0,0,0,0,0,0.0902,0.0927,0.0958,0.0976,0.0988,0.1004,0.1013,0.1018,0.1023,0.1021,0.1019,0.1016,0.1018,0.1023,0.1026,0.1046,0.1038,0.1052,0.1053,0.1053,0.107,0.1049,0.1049,0.1043,0.1043,0.1043,0,0,0.0902,0.0923,0.094,0.0973,0.0988,0.1013,0.1004,0.1027,0.1042,0.1027,0.1033,0.1024,0.1022,0.103,0.1034,0.1033,0.1049,0.1052,0.1053,0.1069,0.1048,0.1049,0.1049,0.1042,0.1042,0.1042,0,0,0.0913,0.0927,0.0956,0.0977,0.1011,0.102,0.1029,0.105,0.105,0.1067,0.1048,0.1044,0.1054,0.1048,0.1049,0.1059,0.1051,0.1054,0.1079,0.1058,0.1059,0.1059,0.1046,0.1045,0.1056,0.1056,0.1056,0,0.0905,0.0946,0.0965,0.0994,0.1013,0.1024,0.1054,0.1063,0.1079,0.109,0.1071,0.1076,0.1066,0.1082,0.1069,0.1064,0.1048,0.1079,0.106,0.1061,0.1061,0.1047,0.1045,0.1057,0.1057,0.1056,0.1056,0,0.0942,0.0973,0.0988,0.103,0.1049,0.1076,0.11,0.1111,0.1111,0.1124,0.1138,0.1119,0.1127,0.1111,0.1093,0.1093,0.1079,0.1062,0.1062,0.1063,0.1047,0.1046,0.1058,0.1058,0.1057,0.1057,0,0,0.0916,0.1,0.1002,0.1031,0.1072,0.109,0.112,0.1154,0.1179,0.118,0.121,0.119,0.1186,0.1184,0.1161,0.1133,0.1106,0.1095,0.1094,0.109,0.1059,0.1041,0.1038,0.1078,0.1078,0.1078,0.1046,0,0.0933,0.0995,0.1032,0.108,0.111,0.1137,0.1167,0.1199,0.1215,0.1243,0.1239,0.1253,0.1214,0.1214,0.1185,0.1137,0.1103,0.1116,0.1054,0.1052,0.1042,0.1036,0.1021,0.099,0.1045,0.1044,0.1044,0,0.0943,0.0986,0.1043,0.1115,0.1131,0.1157,0.1203,0.124,0.1288,0.1306,0.1329,0.1329,0.1322,0.1269,0.1207,0.1215,0.1139,0.1086,0.1084,0.1064,0.1032,0.0998,0.0985,0.0914,0.1042,0.1042,0.1042,0,0.0897,0.0983,0.1026,0.1049,0.1133,0.1158,0.1196,0.1251,0.1293,0.1346,0.1383,0.1385,0.1388,0.1313,0.123,0.1209,0.1146,0.1108,0.1021,0.1019,0.0995,0.0992,0.0916,0.1039,0.1039,0.1039,0.1039,0,0.0886,0.0916,0.1009,0.1027,0.1078,0.1144,0.1198,0.1243,0.1322,0.1381,0.1413,0.1453,0.139,0.136,0.1262,0.116,0.1178,0.1033,0.1011,0.1001,0.0998,0.0926,0.0885,0.1038,0.1038,0.1038,0.1038,0,0.0831,0.0891,0.0944,0.1035,0.1057,0.1093,0.1193,0.1244,0.1326,0.1405,0.1428,0.1496,0.147,0.1406,0.1292,0.1203,0.1053,0.1047,0.1049,0.1027,0.0871,0.0832,0.0729,0.0719,0.0949,0.0948,0.0948,0,0.0818,0.084,0.0926,0.0959,0.0999,0.1064,0.1115,0.1217,0.1285,0.1427,0.1469,0.1497,0.1526,0.1405,0.1251,0.1108,0.1028,0.0983,0.0933,0.0868,0.0808,0.077,0.0768,0.0906,0.0905,0.0904,0.0904,0,0.0792,0.0818,0.0867,0.0927,0.0979,0.1052,0.1138,0.1194,0.133,0.1417,0.1531,0.1573,0.1491,0.1381,0.1209,0.1088,0.0938,0.0962,0.0891,0.0769,0.0728,0.0707,0.0928,0.0898,0.0898,0.0899,0.0899,0.0899,0.0767,0.0798,0.0858,0.0911,0.0975,0.1058,0.1122,0.123,0.1347,0.1511,0.1547,0.164,0.1496,0.1274,0.1124,0.0851,0.0857,0.0758,0.0717,0.0686,0.0671,0.0887,0.0833,0.0833,0.0833,0.0834,0.0834,0,0.0754,0.0796,0.0845,0.0927,0.0989,0.103,0.1156,0.1244,0.1382,0.1516,0.162,0.161,0.1402,0.119,0.0819,0.0641,0.0587,0.056,0.0503,0.0515,0.0698,0.0692,0.0611,0.0611,0.0611,0.0611,0.0611,0.0612,0.075,0.0798,0.0829,0.0923,0.0982,0.1083,0.116,0.1294,0.1417,0.1567,0.1641,0.1701,0.1545,0.0903,0.0509,0.0436,0.0343,0.0303,0.029,0.0405,0.042,0.0435,0.042,0.0284,0.0283,0.013,0.0129,0.0127]}],[{"header":{"parameterUnit":"m.s-1","parameterCategory":2,"la1":30.2991,"la2":30.254,"lo1":-89.0895,"lo2":-89.0444,"dy":0.0017,"dx":0.0017,"nx":28,"ny":28,"refTime":"2024-07-12T09:00:00:Z","depth":"2","parameterNumber":2,"parameterNumberName":"U-component_of_CURRENTS"},"data":[0,0,0,0,0,0,0,0,0,0,0,0,0,0,0,0,0,0,0,0,0,0,0,0,0,0,0,0,0,0,0,0,0,0,0,0,0,0,0,0,0,0,0,0,0,0,0,0,0,0,0,0,0,0,0,0,0,0,0.1725,0.1727,0,0.1555,0.1549,0.1544,0.1654,0.1663,0.1672,0.1681,0.1833,0.1829,0.1825,0,0,0,0,0,0,0,0,0,0,0,0,0,0.1507,0.151,0.1725,0.1727,0.1729,0.1556,0.1549,0.1542,0.1652,0.1663,0.1675,0.1685,0.1835,0.183,0.1824,0,0,0,0,0,0,0,0,0,0,0,0,0,0.1455,0.1512,0.1725,0.1796,0.1804,0.1557,0.1549,0.1541,0.165,0.1664,0.1678,0.169,0.1837,0.183,0.1823,0.1506,0,0,0.1803,0.18,0,0,0,0,0,0,0,0,0.1458,0.1457,0.1783,0.1791,0.18,0.1679,0.153,0.1561,0.1646,0.1661,0.1681,0.1697,0.1831,0.1825,0.1694,0.1513,0.152,0.1802,0.1798,0.1795,0.1793,0,0,0,0,0,0,0,0.1462,0.1462,0.1613,0.1785,0.1795,0.1621,0.1629,0.1528,0.1642,0.1661,0.168,0.1727,0.1833,0.1699,0.1701,0.1522,0.1802,0.1796,0.1792,0.179,0.1664,0.1664,0,0,0,0,0,0,0.1591,0.1468,0.1619,0.1612,0.1709,0.1619,0.1626,0.1667,0.1637,0.1656,0.1715,0.1734,0.1704,0.1708,0.1708,0.1857,0.1795,0.1789,0.1785,0.1663,0.1664,0.1664,0,0,0,0,0,0,0.1586,0.1605,0.1627,0.1571,0.1569,0.1618,0.1656,0.1658,0.1647,0.1683,0.1702,0.1729,0.1715,0.1717,0.187,0.1848,0.1786,0.178,0.1662,0.1663,0.1664,0.1822,0,0,0,0,0,0,0.158,0.1603,0.1569,0.1581,0.1579,0.1565,0.1648,0.1646,0.1671,0.1694,0.1695,0.1717,0.1726,0.1882,0.1864,0.1837,0.1775,0.1661,0.1663,0.1664,0.1816,0.1828,0.1839,0,0,0,0,0,0.1572,0.1516,0.1567,0.1583,0.1567,0.1568,0.1541,0.1589,0.166,0.1627,0.1776,0.1723,0.1874,0.188,0.1858,0.1828,0.166,0.1662,0.1664,0.1811,0.1826,0.1839,0,0,0,0,0,0,0.1417,0.1526,0.1583,0.1569,0.1616,0.1608,0.1559,0.1602,0.1639,0.1713,0.1761,0.179,0.1878,0.1833,0.1839,0.1794,0.1736,0.1734,0.1855,0.1868,0.188,0.1867,0.1769,0,0,0,0,0,0.1367,0.1369,0.1468,0.1467,0.1495,0.1521,0.15,0.1568,0.1652,0.1675,0.173,0.1781,0.1807,0.186,0.1834,0.1819,0.176,0.1773,0.1785,0.1796,0.177,0.1749,0.1757,0.167,0.167,0.167,0,0,0.1327,0.1381,0.1388,0.1433,0.1455,0.149,0.1535,0.1568,0.1625,0.1683,0.1773,0.1806,0.1814,0.185,0.1874,0.1859,0.1789,0.1798,0.1808,0.1775,0.1752,0.176,0.1768,0.1671,0.1671,0.167,0,0,0.1268,0.1295,0.1285,0.1309,0.1398,0.1446,0.1499,0.1556,0.1606,0.1702,0.1775,0.1888,0.1868,0.1921,0.1933,0.1971,0.1837,0.1898,0.1964,0.1947,0.1954,0.196,0.1902,0.1901,0.1924,0.1925,0.1925,0,0.1231,0.1234,0.1275,0.128,0.1328,0.1472,0.1508,0.1532,0.1652,0.1688,0.1796,0.182,0.1903,0.1927,0.2021,0.1995,0.1933,0.1929,0.1965,0.1969,0.1972,0.1911,0.1908,0.1932,0.1931,0.1931,0.193,0,0.1168,0.1174,0.118,0.1277,0.1306,0.1359,0.1497,0.1558,0.1689,0.1725,0.1793,0.1901,0.1956,0.1955,0.2048,0.2054,0.1984,0.1974,0.1939,0.1991,0.1922,0.1916,0.1944,0.1941,0.1938,0.1936,0,0,0.1177,0.1145,0.1163,0.1173,0.1316,0.1348,0.148,0.1589,0.1648,0.175,0.1799,0.1928,0.1982,0.2001,0.205,0.2066,0.2137,0.2063,0.2058,0.2018,0.2043,0.1935,0.1917,0.2122,0.2122,0.2122,0.1989,0,0.1168,0.1126,0.1142,0.1194,0.1221,0.1353,0.1414,0.1524,0.167,0.1745,0.1833,0.1907,0.1991,0.2067,0.2103,0.2124,0.2123,0.2169,0.1982,0.1976,0.1887,0.1909,0.1807,0.1674,0.1983,0.1982,0.1981,0,0.1159,0.1127,0.1129,0.1126,0.1148,0.124,0.1398,0.1446,0.1586,0.167,0.1782,0.1864,0.199,0.2047,0.2064,0.2079,0.2093,0.2066,0.206,0.1889,0.1856,0.1667,0.165,0.197,0.197,0.1971,0.1972,0,0.1161,0.1145,0.1142,0.1149,0.1175,0.1256,0.1334,0.1469,0.1482,0.1688,0.1751,0.1839,0.1931,0.1946,0.1997,0.2068,0.1893,0.1999,0.1853,0.1843,0.1681,0.1657,0.1953,0.1953,0.1953,0.1954,0.1954,0,0.115,0.1146,0.116,0.115,0.1192,0.1226,0.1314,0.1405,0.1478,0.1503,0.1734,0.1763,0.1914,0.1872,0.1917,0.182,0.1848,0.1836,0.1802,0.1731,0.1715,0.1908,0.1904,0.1948,0.195,0.1951,0.1951,0,0.113,0.1128,0.113,0.1161,0.1204,0.1257,0.133,0.1336,0.1438,0.1515,0.1595,0.1705,0.1743,0.173,0.172,0.1707,0.1632,0.1558,0.1439,0.1396,0.1634,0.164,0.151,0.1505,0.1501,0.1497,0.1494,0,0.109,0.1079,0.1148,0.1188,0.1245,0.1319,0.1345,0.1392,0.1427,0.1462,0.1486,0.1533,0.1587,0.1434,0.1413,0.1353,0.1439,0.1197,0.1376,0.1608,0.1589,0.1602,0.1613,0.1224,0.122,0.1216,0.1212,0,0.0989,0.1049,0.1017,0.1134,0.1237,0.1248,0.1339,0.1325,0.1356,0.1414,0.1413,0.1423,0.1358,0.1271,0.1132,0.1102,0.1237,0.112,0.1342,0.1357,0.1329,0.1314,0.1336,0.1177,0.118,0.1183,0.1185,0.1186,0.0926,0.0928,0.094,0.1046,0.1149,0.119,0.1202,0.1255,0.1243,0.1258,0.1226,0.1208,0.1091,0.0939,0.0872,0.0906,0.1024,0.103,0.1047,0.1067,0.1062,0.103,0.0817,0.0819,0.082,0.0821,0.0822,0,0.0842,0.0828,0.0848,0.0958,0.1038,0.116,0.1167,0.1147,0.1195,0.116,0.113,0.0862,0.0737,0.0749,0.0765,0.0735,0.0795,0.0741,0.0831,0.0861,0.0889,0.0883,0.0587,0.0587,0.0587,0.0588,0,0,0.0774,0.0761,0.0764,0.0846,0.0969,0.1042,0.1078,0.1063,0.1041,0.0941,0.0906,0.0671,0.0697,0.0595,0.0549,0.0636,0.0776,0.0626,0.0796,0.0932,0.0962,0.1009,0.1024,0,0,0,0,0]},{"header":{"parameterUnit":"m.s-1","parameterCategory":2,"la1":30.2991,"la2":30.254,"lo1":-89.0895,"lo2":-89.0444,"dy":0.0017,"dx":0.0017,"nx":28,"ny":28,"refTime":"2024-07-12T09:00:00:Z","depth":"2","parameterNumber":3,"parameterNumberName":"V-component_of_CURRENTS"},"data":[0,0,0,0,0,0,0,0,0,0,0,0,0,0,0,0,0,0,0,0,0,0,0,0,0,0,0,0,0,0,0,0,0,0,0,0,0,0,0,0,0,0,0,0,0,0,0,0,0,0,0,0,0,0,0,0,0,0,0.0006,0.0006,0,-0.0109,-0.0112,-0.0115,-0.0006,-0.0001,0.0005,0.0011,0.0044,0.0039,0.0035,0,0,0,0,0,0,0,0,0,0,0,0,0,-0.0066,-0.0065,0.0006,0.0006,0.0006,-0.0109,-0.0112,-0.0115,-0.0008,-0.0,0.0007,0.0014,0.0045,0.004,0.0034,0,0,0,0,0,0,0,0,0,0,0,0,0,-0.0109,-0.0064,0.0006,0.0059,0.0064,-0.0108,-0.0112,-0.0116,-0.0009,-0.0,0.0009,0.0017,0.0047,0.004,0.0033,-0.0187,0,0,0.0012,0.0009,0,0,0,0,0,0,0,0,-0.0106,-0.0109,0.0051,0.0055,0.0061,-0.0019,-0.0125,-0.0127,-0.0011,0.0,0.0011,0.0021,0.0041,0.0035,-0.0033,-0.0186,-0.0184,0.0011,0.0007,0.0004,0.0002,0,0,0,0,0,0,0,-0.0103,-0.0105,-0.0057,0.0051,0.0057,-0.0043,-0.0037,-0.0129,-0.0038,-0.0,0.0012,0.0023,0.0044,-0.0027,-0.0031,-0.0184,0.0012,0.0005,0.0001,-0.0002,-0.0157,-0.0157,0,0,0,0,0,0,-0.0044,-0.0101,-0.0053,-0.0059,0.0016,-0.0046,-0.0041,-0.0017,-0.004,-0.0032,0.0016,0.0029,-0.002,-0.0023,-0.0029,0.0055,0.0004,-0.0002,-0.0006,-0.0157,-0.0157,-0.0157,0,0,0,0,0,0,-0.0045,-0.0039,-0.0048,-0.007,-0.0075,-0.0049,-0.0027,-0.0023,-0.0046,-0.0026,-0.0016,0.0001,-0.0013,-0.0019,0.0071,0.0046,-0.0005,-0.0012,-0.0157,-0.0157,-0.0157,0.0001,0,0,0,0,0,0,-0.0047,-0.0039,-0.006,-0.0065,-0.007,-0.0108,-0.0033,-0.0031,-0.0047,-0.003,-0.004,-0.0029,-0.0006,0.0083,0.0065,0.0035,-0.0017,-0.0157,-0.0157,-0.0157,-0.0005,0.0006,0.0015,0,0,0,0,0,-0.0049,-0.0076,-0.0061,-0.0057,-0.008,-0.0108,-0.0124,-0.009,-0.0055,-0.008,0.0031,-0.0027,0.0067,0.0081,0.0058,0.0025,-0.0158,-0.0157,-0.0157,-0.0009,0.0004,0.0015,0,0,0,0,0,0,-0.012,-0.0068,-0.0049,-0.0059,-0.0065,-0.008,-0.0108,-0.0108,-0.0074,-0.002,0.0004,0.0022,0.007,0.0017,0.003,-0.0023,-0.0076,-0.008,0.0044,0.0055,0.0065,0.0045,-0.0023,0,0,0,0,0,-0.015,-0.0144,-0.0118,-0.0131,-0.0122,-0.0134,-0.016,-0.0127,-0.0077,-0.0059,-0.0036,-0.0008,0.0017,0.0037,0.0023,-0.001,-0.0078,-0.006,-0.005,-0.0041,-0.0074,-0.0132,-0.013,-0.0157,-0.0157,-0.0157,0,0,-0.0171,-0.0152,-0.0145,-0.0148,-0.0147,-0.0128,-0.0127,-0.0131,-0.0112,-0.0066,-0.0017,0.0016,0.0019,0.0052,0.0055,0.0031,-0.0063,-0.0041,-0.0031,-0.0071,-0.0132,-0.0129,-0.0127,-0.0157,-0.0157,-0.0157,0,0,-0.0185,-0.0194,-0.0175,-0.0186,-0.0168,-0.0155,-0.0145,-0.0136,-0.0125,-0.0095,-0.0012,0.0059,0.0014,0.008,0.0089,0.0111,-0.0008,0.0057,0.0093,0.004,0.0042,0.0043,-0.0003,-0.0008,0.0064,0.0065,0.0065,0,-0.0208,-0.0182,-0.0188,-0.0176,-0.0162,-0.0144,-0.0112,-0.0133,-0.009,-0.0087,-0.0044,-0.0025,0.0022,0.0076,0.0156,0.013,0.0078,0.0069,0.0056,0.0055,0.0053,0.0005,-0.0002,0.0072,0.0072,0.0071,0.007,0,-0.0201,-0.0186,-0.0178,-0.0121,-0.0127,-0.0108,-0.008,-0.0073,-0.0053,-0.0075,-0.0054,0.0025,0.0047,0.0061,0.0145,0.0145,0.0107,0.0083,0.0037,0.0066,0.0013,0.0003,0.0083,0.0081,0.0078,0.0076,0,0,-0.0195,-0.0165,-0.0159,-0.0133,-0.0092,-0.0086,-0.004,-0.0023,0.0004,-0.0024,-0.0009,0.0064,0.0065,0.0079,0.0144,0.0137,0.0162,0.0131,0.0124,0.0103,0.004,0.0131,0.0127,0.0138,0.0137,0.0135,0.0023,0,-0.0165,-0.0124,-0.0116,-0.006,-0.0022,-0.0001,0.0023,0.0025,0.0046,0.006,0.0037,0.0089,0.0071,0.0161,0.0125,0.0178,0.0134,0.0194,-0.0006,-0.0013,0.0081,0.0118,0.0092,-0.0002,0.0012,0.001,0.0009,0,-0.0151,-0.0119,-0.0057,-0.0018,-0.0,0.0044,0.0113,0.0123,0.0125,0.0132,0.012,0.0123,0.016,0.0148,0.0071,0.011,0.007,0.0057,0.0052,0.006,0.0058,-0.0041,-0.0022,-0.001,-0.0008,-0.0007,-0.0006,0,-0.0144,-0.0085,-0.0026,-0.0018,0.0037,0.008,0.0123,0.0149,0.0158,0.0219,0.0255,0.0195,0.0231,0.0126,0.0096,0.0103,-0.0022,-0.0025,-0.0033,-0.0028,-0.0133,-0.0132,-0.0148,-0.0147,-0.0147,-0.0147,-0.0146,0,-0.0123,-0.0083,-0.0011,0.0008,0.0083,0.0099,0.0175,0.0215,0.0255,0.0282,0.0295,0.032,0.0229,0.0155,0.0082,-0.0008,-0.007,-0.0036,-0.005,-0.0072,-0.0065,-0.0153,-0.0153,-0.0151,-0.015,-0.0149,-0.0149,0,-0.0117,-0.0077,-0.0022,0.0052,0.009,0.014,0.0226,0.0265,0.0317,0.0387,0.0426,0.04,0.0345,0.0212,0.0095,0.0013,-0.0074,-0.0112,-0.0113,-0.0122,-0.0046,-0.0037,-0.0111,-0.0109,-0.0107,-0.0105,-0.0104,0,-0.0104,-0.0078,0.0007,0.0057,0.0114,0.0197,0.0252,0.031,0.0373,0.0429,0.0465,0.0446,0.0437,0.0261,0.014,-0.0006,-0.0065,-0.0105,-0.0075,-0.0035,-0.0043,-0.0036,-0.0029,-0.0164,-0.0163,-0.0162,-0.0162,0,-0.0088,-0.0066,-0.0011,0.0092,0.018,0.0254,0.0359,0.0409,0.0478,0.0554,0.0599,0.0601,0.0462,0.0313,0.0153,0.006,-0.0061,-0.0087,-0.0102,-0.0123,-0.0081,-0.0089,-0.0082,-0.0156,-0.0157,-0.0157,-0.0158,-0.0158,-0.0079,-0.0025,0.004,0.0139,0.0236,0.0332,0.0409,0.0523,0.0621,0.0732,0.0662,0.0652,0.0384,0.0207,0.0083,0.0022,0.0026,-0.0052,-0.0057,-0.0063,-0.0002,0.0045,0.0003,0.0004,0.0004,0.0004,0.0004,0,-0.0054,0.0001,0.0084,0.0218,0.0323,0.0368,0.0492,0.0581,0.0749,0.0777,0.0813,0.0521,0.036,0.0162,0.0088,0.0016,-0.0015,-0.0014,-0.0092,-0.0097,-0.0102,-0.0046,-0.0051,-0.0051,-0.0051,-0.0051,0,0,-0.0027,0.0039,0.0095,0.0275,0.0379,0.0524,0.0604,0.0748,0.0804,0.0839,0.079,0.0589,0.0329,0.0185,0.0038,0.0042,0.0022,0.0053,0.0099,0.0021,0.0019,-0.013,-0.0049,0,0,0,0,0]}],[{"header":{"parameterUnit":"m.s-1","parameterCategory":2,"la1":30.2991,"la2":30.254,"lo1":-89.0895,"lo2":-89.0444,"dy":0.0017,"dx":0.0017,"nx":28,"ny":28,"refTime":"2024-07-12T09:00:00:Z","depth":"4","parameterNumber":2,"parameterNumberName":"U-component_of_CURRENTS"},"data":[0,0,0,0,0,0,0,0,0,0,0,0,0,0,0,0,0,0,0,0,0,0,0,0,0,0,0,0,0,0,0,0,0,0,0,0,0,0,0,0,0,0,0,0,0,0,0,0,0,0,0,0,0,0,0,0,0,0,-0.0437,-0.0437,0,-0.0478,-0.0479,-0.0479,-0.0517,-0.0517,-0.0518,-0.0518,-0.0668,-0.0671,-0.0675,0,0,0,0,0,0,0,0,0,0,0,0,0,-0.0336,-0.0338,-0.0437,-0.0437,-0.0438,-0.0478,-0.0479,-0.0479,-0.0516,-0.0517,-0.0518,-0.0518,-0.0666,-0.0671,-0.0675,0,0,0,0,0,0,0,0,0,0,0,0,0,-0.0379,-0.0339,-0.0437,-0.0462,-0.0464,-0.0478,-0.0479,-0.0479,-0.0516,-0.0517,-0.0518,-0.0519,-0.0665,-0.067,-0.0675,-0.0693,0,0,-0.0692,-0.0694,0,0,0,0,0,0,0,0,-0.0376,-0.0382,-0.0457,-0.046,-0.0463,-0.0494,-0.0498,-0.0557,-0.0516,-0.0496,-0.0518,-0.0519,-0.0619,-0.0628,-0.0632,-0.07,-0.0707,-0.0692,-0.0695,-0.0698,-0.0699,0,0,0,0,0,0,0,-0.0374,-0.0381,-0.0453,-0.0458,-0.0461,-0.0453,-0.046,-0.0509,-0.0555,-0.0498,-0.0501,-0.0506,-0.0622,-0.0627,-0.0636,-0.0709,-0.0692,-0.0697,-0.07,-0.0702,-0.0897,-0.0899,0,0,0,0,0,0,-0.0372,-0.0378,-0.0451,-0.0454,-0.0421,-0.0454,-0.0462,-0.0483,-0.0552,-0.0562,-0.0505,-0.0508,-0.0617,-0.063,-0.0642,-0.0758,-0.0698,-0.0703,-0.0706,-0.0895,-0.0898,-0.09,0,0,0,0,0,0,-0.037,-0.0379,-0.045,-0.0416,-0.0425,-0.0456,-0.0478,-0.0483,-0.0524,-0.0556,-0.0569,-0.0545,-0.0619,-0.0635,-0.0726,-0.076,-0.0705,-0.071,-0.0893,-0.0896,-0.0899,-0.0932,0,0,0,0,0,0,-0.0367,-0.0378,-0.0388,-0.0417,-0.0427,-0.0464,-0.0477,-0.0483,-0.0524,-0.0528,-0.0594,-0.0606,-0.062,-0.0718,-0.0731,-0.0767,-0.0714,-0.089,-0.0894,-0.0898,-0.0928,-0.0935,-0.0942,0,0,0,0,0,-0.0363,-0.0374,-0.0388,-0.0397,-0.0442,-0.0465,-0.0469,-0.0492,-0.0526,-0.0535,-0.0604,-0.0606,-0.0751,-0.0724,-0.0739,-0.0777,-0.0889,-0.0893,-0.0898,-0.0925,-0.0934,-0.0942,0,0,0,0,0,0,-0.0343,-0.038,-0.0396,-0.0421,-0.0444,-0.0471,-0.0485,-0.0514,-0.0573,-0.0603,-0.064,-0.0657,-0.0748,-0.0763,-0.0733,-0.0845,-0.0817,-0.0825,-0.0833,-0.0842,-0.0848,-0.082,-0.0718,0,0,0,0,0,-0.0341,-0.0358,-0.0393,-0.0413,-0.0431,-0.0469,-0.0485,-0.0514,-0.0567,-0.0594,-0.0639,-0.0703,-0.0771,-0.0809,-0.0857,-0.0925,-0.0899,-0.0957,-0.0964,-0.0969,-0.0958,-0.0959,-0.0963,-0.0915,-0.0915,-0.0915,0,0,-0.0337,-0.0361,-0.0371,-0.0409,-0.0436,-0.0461,-0.0482,-0.0527,-0.0551,-0.0605,-0.0666,-0.0736,-0.0797,-0.087,-0.0911,-0.0892,-0.097,-0.0975,-0.0979,-0.0965,-0.0964,-0.0968,-0.0971,-0.0918,-0.0917,-0.0917,0,0,-0.0337,-0.0368,-0.0382,-0.0407,-0.0455,-0.0475,-0.0499,-0.0551,-0.0577,-0.0645,-0.0703,-0.0788,-0.0872,-0.0917,-0.0956,-0.1031,-0.101,-0.1065,-0.1075,-0.1076,-0.1079,-0.1081,-0.1042,-0.1041,-0.1062,-0.1063,-0.1063,0,-0.0336,-0.0362,-0.0388,-0.0415,-0.0436,-0.0489,-0.0517,-0.0545,-0.0618,-0.0644,-0.0667,-0.0821,-0.0881,-0.0976,-0.1016,-0.1043,-0.1034,-0.1037,-0.1081,-0.1083,-0.1085,-0.1045,-0.1042,-0.1065,-0.1064,-0.1064,-0.1064,0,-0.0343,-0.0374,-0.0391,-0.0436,-0.0456,-0.0497,-0.0537,-0.0578,-0.0627,-0.0652,-0.0753,-0.084,-0.0929,-0.0972,-0.1028,-0.1096,-0.1081,-0.1091,-0.105,-0.1091,-0.1047,-0.1044,-0.1068,-0.1067,-0.1066,-0.1066,0,0,-0.0338,-0.0385,-0.0395,-0.0419,-0.0481,-0.0502,-0.0546,-0.0588,-0.0629,-0.0693,-0.0741,-0.0876,-0.0935,-0.0984,-0.1069,-0.1086,-0.1107,-0.1111,-0.111,-0.1053,-0.109,-0.0972,-0.0957,-0.1135,-0.1136,-0.1136,-0.1048,0,-0.0347,-0.0379,-0.0402,-0.0447,-0.0476,-0.0528,-0.0556,-0.0604,-0.065,-0.0703,-0.0785,-0.0872,-0.0934,-0.1018,-0.1046,-0.1115,-0.1104,-0.1127,-0.1075,-0.1072,-0.0947,-0.0951,-0.1136,-0.1046,-0.1045,-0.1044,-0.1044,0,-0.0355,-0.0378,-0.0412,-0.0462,-0.048,-0.0524,-0.059,-0.0627,-0.0696,-0.0734,-0.0819,-0.0877,-0.0971,-0.1002,-0.1062,-0.1085,-0.1088,-0.1099,-0.1096,-0.0967,-0.0949,-0.1003,-0.1038,-0.1039,-0.1039,-0.1039,-0.104,0,-0.0331,-0.0386,-0.041,-0.0432,-0.0495,-0.0543,-0.0593,-0.0658,-0.0683,-0.078,-0.0804,-0.0897,-0.0962,-0.099,-0.1034,-0.1063,-0.1044,-0.1071,-0.0938,-0.0929,-0.1046,-0.1044,-0.1054,-0.1054,-0.1054,-0.1054,-0.1054,0,-0.033,-0.0355,-0.042,-0.0443,-0.0491,-0.0556,-0.0619,-0.0673,-0.0747,-0.0756,-0.0848,-0.0849,-0.0967,-0.0971,-0.1004,-0.095,-0.1009,-0.092,-0.0898,-0.1062,-0.1063,-0.1042,-0.1042,-0.1051,-0.1051,-0.1052,-0.1053,0,-0.0307,-0.0339,-0.0376,-0.0456,-0.0487,-0.0538,-0.0628,-0.0653,-0.0744,-0.0765,-0.0794,-0.0828,-0.0809,-0.0862,-0.0886,-0.0887,-0.0863,-0.0817,-0.0952,-0.0943,-0.0749,-0.0753,-0.0655,-0.065,-0.0646,-0.0643,-0.064,0,-0.0296,-0.0318,-0.0377,-0.0393,-0.0447,-0.0528,-0.0557,-0.0653,-0.0658,-0.0708,-0.068,-0.0687,-0.0694,-0.0613,-0.0686,-0.0682,-0.0685,-0.0684,-0.0752,-0.0719,-0.0709,-0.0719,-0.0727,-0.0633,-0.0632,-0.0631,-0.063,0,-0.0287,-0.031,-0.033,-0.0359,-0.0403,-0.0416,-0.0476,-0.0472,-0.0546,-0.0618,-0.0547,-0.0542,-0.0487,-0.0495,-0.05,-0.0505,-0.071,-0.0641,-0.0651,-0.0715,-0.0692,-0.0688,-0.0701,-0.0616,-0.0618,-0.0619,-0.062,0,-0.0281,-0.0283,-0.0302,-0.033,-0.0335,-0.0302,-0.0347,-0.034,-0.0362,-0.043,-0.0379,-0.0389,-0.0429,-0.0392,-0.0387,-0.0394,-0.04,-0.0441,-0.0462,-0.0479,-0.047,-0.0418,-0.0218,0,0,0,0,0,-0.0271,-0.0263,-0.0269,-0.0266,-0.0247,-0.0252,-0.0266,-0.0302,-0.0367,-0.0288,-0.0349,-0.0287,-0.0272,-0.0261,-0.0232,-0.0304,-0.0407,-0.0272,-0.0467,-0.0536,-0.0552,-0.0564,0,0,0,0,0,0,-0.0262,-0.026,-0.0256,-0.0196,-0.0172,-0.0142,-0.014,-0.018,-0.0138,-0.0211,-0.0176,-0.0266,-0.0225,-0.0273,-0.0221,-0.0229,-0.0346,-0.0296,-0.0295,-0.0526,-0.0541,-0.0555,-0.0573,0,0,0,0,0]},{"header":{"parameterUnit":"m.s-1","parameterCategory":2,"la1":30.2991,"la2":30.254,"lo1":-89.0895,"lo2":-89.0444,"dy":0.0017,"dx":0.0017,"nx":28,"ny":28,"refTime":"2024-07-12T09:00:00:Z","depth":"4","parameterNumber":3,"parameterNumberName":"V-component_of_CURRENTS"},"data":[0,0,0,0,0,0,0,0,0,0,0,0,0,0,0,0,0,0,0,0,0,0,0,0,0,0,0,0,0,0,0,0,0,0,0,0,0,0,0,0,0,0,0,0,0,0,0,0,0,0,0,0,0,0,0,0,0,0,0.0045,0.0046,0,0.0038,0.0038,0.0037,0.0048,0.0049,0.005,0.0051,0.006,0.006,0.0059,0,0,0,0,0,0,0,0,0,0,0,0,0,0.0072,0.0071,0.0045,0.0046,0.0046,0.0038,0.0038,0.0037,0.0048,0.0049,0.005,0.0051,0.0061,0.006,0.0059,0,0,0,0,0,0,0,0,0,0,0,0,0,0.0058,0.0071,0.0045,0.0054,0.0055,0.0038,0.0038,0.0037,0.0048,0.0049,0.005,0.0051,0.0061,0.006,0.0059,0.0031,0,0,0.0057,0.0057,0,0,0,0,0,0,0,0,0.0059,0.0056,0.0052,0.0053,0.0055,0.0049,0.0051,0.0037,0.0048,0.0046,0.0051,0.0052,0.006,0.006,0.0049,0.0031,0.0031,0.0057,0.0057,0.0056,0.0056,0,0,0,0,0,0,0,0.006,0.0057,0.0038,0.0053,0.0054,0.006,0.0058,0.0048,0.0043,0.0046,0.0048,0.0054,0.0061,0.0049,0.0049,0.0032,0.0057,0.0056,0.0056,0.0056,0.0013,0.0013,0,0,0,0,0,0,0.0068,0.0057,0.0038,0.0038,0.0065,0.0059,0.0057,0.0046,0.0043,0.0045,0.0053,0.0055,0.005,0.005,0.005,0.0036,0.0056,0.0056,0.0055,0.0014,0.0013,0.0012,0,0,0,0,0,0,0.0068,0.0065,0.0039,0.0053,0.005,0.0057,0.0045,0.0045,0.004,0.0049,0.005,0.0049,0.0051,0.0051,0.0029,0.0036,0.0055,0.0055,0.0015,0.0014,0.0013,-0.0004,0,0,0,0,0,0,0.0069,0.0065,0.0064,0.0052,0.005,0.0036,0.0044,0.0045,0.0044,0.0046,0.0045,0.0047,0.0052,0.003,0.0028,0.0035,0.0054,0.0016,0.0014,0.0013,-0.0003,-0.0006,-0.0008,0,0,0,0,0,0.0069,0.0062,0.0063,0.0062,0.0046,0.0036,0.0034,0.0041,0.0043,0.0039,0.0026,0.0047,0.0022,0.0027,0.0026,0.0034,0.0016,0.0015,0.0013,-0.0002,-0.0005,-0.0008,0,0,0,0,0,0,0.0071,0.0063,0.0064,0.0054,0.005,0.004,0.0042,0.0038,0.0022,0.002,0.0025,0.0024,0.0007,0.0016,0.0023,0.0017,0.0028,0.0026,0.0017,0.0014,0.0011,0.0016,0.0053,0,0,0,0,0,0.0071,0.0066,0.0057,0.0052,0.0049,0.0042,0.004,0.0036,0.0023,0.0018,0.0013,0.0008,-0.0003,0.0002,-0.0011,-0.0018,-0.0002,-0.0011,-0.0013,-0.0015,-0.0014,0.0012,0.0013,0.0007,0.0007,0.0007,0,0,0.0069,0.0068,0.0064,0.0053,0.005,0.003,0.0043,0.0033,0.0013,0.002,-0.0009,-0.0012,-0.0013,-0.0026,-0.0028,-0.0012,-0.0009,-0.0017,-0.0019,-0.0016,0.0011,0.0012,0.0013,0.0006,0.0007,0.0007,0,0,0.0059,0.0061,0.0049,0.0043,0.0039,0.0028,0.0024,0.0006,-0.0,-0.0032,-0.0033,-0.0042,-0.0052,-0.0053,-0.0053,-0.0081,-0.0036,-0.0066,-0.006,-0.0034,-0.0033,-0.0032,-0.0022,-0.0019,-0.0051,-0.0051,-0.0051,0,0.0049,0.0038,0.0046,0.0031,0.0024,0.0023,-0.0002,-0.0015,-0.004,-0.0052,-0.0041,-0.0067,-0.007,-0.008,-0.0081,-0.0087,-0.0058,-0.0046,-0.0036,-0.0035,-0.0033,-0.0022,-0.0019,-0.0052,-0.0052,-0.0052,-0.0052,0,0.0026,0.0018,0.0013,-0.001,-0.0019,-0.0036,-0.0052,-0.0073,-0.0081,-0.0089,-0.0105,-0.0108,-0.0113,-0.0108,-0.01,-0.0085,-0.0065,-0.0054,-0.0024,-0.0033,-0.0022,-0.0019,-0.0053,-0.0053,-0.0053,-0.0053,0,0,-0.0014,-0.001,-0.0014,-0.0023,-0.0043,-0.0058,-0.0093,-0.0121,-0.0149,-0.0146,-0.0168,-0.0167,-0.0146,-0.0144,-0.0124,-0.009,-0.0063,-0.005,-0.0048,-0.0034,0.0002,-0.0064,-0.0066,-0.0027,-0.0026,-0.0026,0.0001,0,-0.0042,-0.0066,-0.0064,-0.0097,-0.011,-0.0124,-0.0158,-0.0182,-0.0196,-0.0219,-0.0195,-0.0205,-0.0162,-0.0154,-0.0115,-0.008,-0.0052,-0.0072,0.0003,0.0004,-0.0047,-0.0064,-0.0023,0.0004,0.0005,0.0005,0.0006,0,-0.0071,-0.0078,-0.0111,-0.0133,-0.0145,-0.0179,-0.023,-0.0258,-0.0283,-0.0284,-0.0268,-0.0246,-0.0205,-0.0171,-0.0086,-0.0086,-0.0043,-0.001,-0.0008,-0.0059,-0.0056,0.0017,0.0012,0.0012,0.0011,0.0011,0.0011,0,-0.0087,-0.0115,-0.0137,-0.0145,-0.0178,-0.0212,-0.0245,-0.0284,-0.0308,-0.0318,-0.0323,-0.0271,-0.0247,-0.0167,-0.0093,-0.0071,-0.001,0.0018,-0.0008,-0.0012,0.005,0.0049,0.0064,0.0064,0.0064,0.0064,0.0064,0,-0.011,-0.0132,-0.015,-0.0161,-0.0214,-0.0232,-0.0296,-0.0322,-0.0355,-0.0377,-0.0343,-0.0339,-0.0235,-0.0189,-0.0109,-0.0056,-0.0021,-0.0016,-0.0011,0.0039,0.0036,0.0052,0.005,0.0065,0.0065,0.0065,0.0065,0,-0.0124,-0.0131,-0.0155,-0.0192,-0.0216,-0.0255,-0.0327,-0.0367,-0.0387,-0.0415,-0.0407,-0.0376,-0.0313,-0.0238,-0.0137,-0.0098,-0.0036,-0.0033,-0.0007,0.0001,-0.0047,-0.005,-0.0045,-0.0047,-0.0049,-0.005,-0.0052,0,-0.0137,-0.0143,-0.0175,-0.0202,-0.0227,-0.0289,-0.0337,-0.0378,-0.0403,-0.0433,-0.0433,-0.0408,-0.0376,-0.028,-0.0209,-0.0107,-0.0094,-0.007,-0.0036,-0.0064,-0.0058,-0.0058,-0.0059,-0.0054,-0.0055,-0.0055,-0.0056,0,-0.0157,-0.016,-0.0179,-0.0219,-0.0268,-0.0322,-0.0381,-0.0397,-0.0432,-0.045,-0.0439,-0.0414,-0.0379,-0.0296,-0.0246,-0.0164,-0.0084,-0.0088,-0.0083,-0.005,-0.0075,-0.0068,-0.0066,-0.0062,-0.0061,-0.0061,-0.006,0,-0.0176,-0.0191,-0.0203,-0.0241,-0.0293,-0.0335,-0.0371,-0.0397,-0.0422,-0.0435,-0.0436,-0.0407,-0.0387,-0.033,-0.0272,-0.022,-0.0189,-0.015,-0.014,-0.0133,-0.0175,-0.0221,-0.0254,0,0,0,0,0,-0.0193,-0.0206,-0.0234,-0.0268,-0.0309,-0.0337,-0.0389,-0.0413,-0.0439,-0.0424,-0.0427,-0.0391,-0.0346,-0.033,-0.0283,-0.0305,-0.0187,-0.0252,-0.0138,-0.0097,-0.009,-0.0131,0,0,0,0,0,0,-0.0211,-0.0233,-0.023,-0.0269,-0.0296,-0.0348,-0.0376,-0.0399,-0.0381,-0.0398,-0.0358,-0.0379,-0.0316,-0.0353,-0.0275,-0.0269,-0.0193,-0.0236,-0.0236,-0.0101,-0.0094,-0.0089,-0.0129,0,0,0,0,0]}]]